Flag for Australia

Past Weather in Campbelltown, New South Wales, Australia — Yesterday and Last 2 Weeks

Now
47 °F

Low clouds.


Feels Like: 47 °F
Forecast: 62 / 44 °F
Wind: No wind

Location: Camden Airport

Current Time: Jul 11, 2020 at 10:46:18 pm

Latest Report: Jul 11, 2020 at 9:00 pm


Visibility: 0 mi

Pressure: 29.98 "Hg

Humidity: 99%

Dew Point: 47 °F

Location of CampbelltownLocation

Past Weather in Campbelltown — Graph

°F

Campbelltown Temperature Yesterday

Maximum temperature yesterday: 61 °F (at 3:00 pm)
Minimum temperature yesterday: 42 °F (at 6:00 am)
Average temperature yesterday: 51 °F

High & Low Weather Summary for the Past Weeks

 TemperatureHumidityPressure
High72 °F (Jul 2, 3:00 pm)100% (Jun 27, 8:00 am)30.47 "Hg (Jun 27, 8:00 am)
Low35 °F (Jul 2, 5:00 am)29% (Jul 4, 3:00 pm)29.92 "Hg (Jul 2, 2:00 pm)
Average50 °F80%30.25 "Hg
* Reported Jun 26 9:00 pm — Jul 11 9:00 pm, Campbelltown. Weather by CustomWeather, © 2020

Note: Actual official high and low records may vary slightly from our data, if they occured in-between our weather recording intervals... More about our weather records

Campbelltown Weather History for the Previous 24 Hours

Scroll right to see more
 ConditionsComfort  
Time TempWeatherWind HumidityBarometerVisibility
9:00 pm
Sat, Jul 11
47 °FLow clouds.No wind99%29.98 "Hg0 mi
8:00 pm49 °FCool.No wind99%29.98 "HgN/A
6:00 pm53 °FPassing clouds.No wind98%29.95 "HgN/A
5:00 pm56 °FCool.No wind91%29.95 "HgN/A
3:00 pm60 °FCool.5 mph77%29.94 "HgN/A
2:00 pm59 °FCool.5 mph78%29.96 "HgN/A
12:00 pm56 °FOvercast.1 mph92%30.02 "HgN/A
11:00 am54 °FCool.No wind99%30.04 "HgN/A
9:00 am51 °FRain showers. Low clouds.No wind100%30.07 "Hg4 mi
8:00 am50 °FCool.No wind100%30.08 "HgN/A
6:00 am49 °FOvercast.No wind100%30.09 "Hg2 mi
5:00 am49 °FCool.No wind100%30.09 "HgN/A
3:00 am49 °FDrizzle. Low clouds.No wind100%30.11 "Hg1 mi
2:00 am49 °FCool.No wind99%30.13 "HgN/A
12:00 am50 °FOvercast.No wind100%30.18 "Hg1 mi
11:00 pm
Fri, Jul 10
51 °FCool.3 mph99%30.19 "HgN/A
Weather by CustomWeather, © 2020

See weather overview